Date String (YYYY-MM-DD hh:mm:ss) UTC,Instrument flags,absolute air pressure of the measurement (hPa),sample flow rate (lpm),inlet stack bypass flow (lpm),air temperature of the measurement (°C),ambient temperature measured by the external sensor (°C),aerosol sample conditioner tube jacket temperature (°C),OPC LED temperature (°C),internal box temperature (°C),relative humidity of the measurement (%),span deviation,mass concentration of particles derived from Lorenz-Mie calculation of OPC scattering (μg/m³),mass concentration of particles derived from Lorenz-Mie calculation of OPC scattering (μg/m³),mass concentration of particles derived from Lorenz-Mie calculation of OPC scattering (μg/m³)
DateTimeUTC,F1_M11,P_M11,Q1_M11,Q2_M11,T1_M11,T2_M11,T3_M11,T4_M11,T5_M11,U1_M11,ZSPAN_M11,X0_M11,X2_M11,X1_M11
2024-06-09 00:00:00,SystemResetWarning,0829.6,5.00,000.00,029.0,027.1,000.0,037.7,030.5,035.2,0000.0,0013.02,0004.94,0003.56
2024-06-09 00:01:00,SystemResetWarning,0829.4,5.00,000.00,029.0,027.5,000.0,037.7,030.7,035.3,0000.0,0012.98,0004.93,0003.54
2024-06-09 00:02:00,SystemResetWarning,0829.4,5.01,000.00,029.1,027.9,000.0,037.7,030.8,035.2,0000.0,0014.29,0004.99,0003.56
2024-06-09 00:03:00,SystemResetWarning,0829.3,5.01,000.00,029.2,028.1,000.0,037.7,030.9,035.1,0000.0,0014.42,0005.02,0003.60
2024-06-09 00:04:00,SystemResetWarning,0829.3,4.99,000.00,029.2,028.4,000.0,037.7,031.1,035.3,0000.0,0014.40,0005.05,0003.63
2024-06-09 00:05:00,SystemResetWarning,0829.4,4.99,000.00,029.3,028.6,000.0,037.7,031.2,035.0,0000.0,0014.54,0005.08,0003.65
2024-06-09 00:06:00,SystemResetWarning,0829.3,4.99,000.00,029.4,028.8,000.0,037.7,031.3,034.9,0000.0,0014.64,0005.13,0003.71
2024-06-09 00:07:00,SystemResetWarning,0829.5,5.00,000.00,029.5,028.9,000.0,037.7,031.4,034.8,0000.0,0015.40,0005.23,0003.76
2024-06-09 00:08:00,SystemResetWarning,0829.7,5.00,000.00,029.5,029.1,000.0,037.7,031.4,034.8,0000.0,0015.67,0005.26,0003.78
2024-06-09 00:09:00,SystemResetWarning,0829.8,5.01,000.00,029.6,029.2,000.0,037.8,031.5,034.6,0000.0,0016.01,0005.24,0003.79
2024-06-09 00:10:00,SystemResetWarning,0829.9,5.00,000.00,029.7,029.3,000.0,037.8,031.6,034.2,0000.0,0017.32,0005.26,0003.79
2024-06-09 00:11:00,SystemResetWarning,0830.0,5.00,000.00,029.8,029.4,000.0,037.9,031.7,034.0,0000.0,0017.59,0005.32,0003.80
2024-06-09 00:12:00,SystemResetWarning,0830.0,5.00,000.00,029.8,029.4,000.0,037.9,031.7,033.5,0000.0,0017.57,0005.33,0003.82
2024-06-09 00:13:00,SystemResetWarning,0830.1,4.99,000.00,029.9,029.5,000.0,037.9,031.8,033.9,0000.0,0016.55,0005.28,0003.80
2024-06-09 00:14:00,SystemResetWarning,0830.2,5.00,000.00,029.9,029.6,000.0,038.0,031.8,033.7,0000.0,0016.52,0005.33,0003.77
2024-06-09 00:15:00,SystemResetWarning,0830.3,4.98,000.00,029.9,028.5,000.0,038.0,031.3,033.7,0000.0,0016.12,0005.30,0003.74
2024-06-09 00:16:00,SystemResetWarning,0830.1,5.01,000.00,029.5,026.6,000.0,038.1,030.4,034.2,0000.0,0015.64,0005.26,0003.70
2024-06-09 00:17:00,SystemResetWarning,0830.1,5.01,000.00,029.3,026.4,000.0,038.1,030.2,034.8,0000.0,0014.71,0005.13,0003.65
2024-06-09 00:18:00,SystemResetWarning,0830.1,4.99,000.00,029.2,026.7,000.0,038.0,030.3,035.1,0000.0,0014.18,0005.05,0003.60
2024-06-09 00:19:00,SystemResetWarning,0830.2,5.01,000.00,029.2,027.1,000.0,037.9,030.6,034.9,0000.0,0014.10,0005.01,0003.56
2024-06-09 00:20:00,SystemResetWarning,0830.1,4.99,000.00,029.2,027.5,000.0,037.8,030.8,034.9,0000.0,0013.94,0005.00,0003.54
2024-06-09 00:21:00,SystemResetWarning,0830.2,5.00,000.00,029.3,027.9,000.0,037.8,030.9,034.9,0000.0,0013.62,0005.00,0003.54
2024-06-09 00:22:00,SystemResetWarning,0830.1,5.00,000.00,029.3,028.1,000.0,037.8,031.1,035.0,0000.0,0013.49,0004.96,0003.53
2024-06-09 00:23:00,SystemResetWarning,0830.1,5.00,000.00,029.4,028.4,000.0,037.8,031.2,034.8,0000.0,0013.57,0004.88,0003.51
2024-06-09 00:24:00,SystemResetWarning,0830.0,5.00,000.00,029.4,028.6,000.0,037.8,031.2,034.7,0000.0,0013.35,0004.84,0003.51
2024-06-09 00:25:00,SystemResetWarning,0830.0,5.00,000.00,029.5,028.7,000.0,037.8,031.3,034.9,0000.0,0013.36,0004.78,0003.49
2024-06-09 00:26:00,SystemResetWarning,0830.0,5.00,000.00,029.5,028.9,000.0,037.8,031.4,034.7,0000.0,0014.04,0004.79,0003.47
2024-06-09 00:27:00,SystemResetWarning,0829.9,5.00,000.00,029.6,029.0,000.0,037.9,031.4,034.7,0000.0,0014.56,0004.77,0003.48
2024-06-09 00:28:00,SystemResetWarning,0829.7,5.00,000.00,029.7,029.1,000.0,037.9,031.5,034.9,0000.0,0015.43,0004.82,0003.49
2024-06-09 00:29:00,SystemResetWarning,0829.7,5.00,000.00,029.7,029.2,000.0,037.9,031.5,035.1,0000.0,0015.55,0004.86,0003.51
2024-06-09 00:30:00,SystemResetWarning,0829.7,5.00,000.00,029.8,029.3,000.0,038.0,031.6,035.5,0000.0,0016.27,0004.91,0003.53
2024-06-09 00:31:00,SystemResetWarning,0829.7,5.00,000.00,029.8,029.4,000.0,038.0,031.7,035.5,0000.0,0017.13,0004.95,0003.55
2024-06-09 00:32:00,SystemResetWarning,0829.8,5.00,000.00,029.9,029.4,000.0,038.0,031.7,035.5,0000.0,0016.29,0004.99,0003.57
2024-06-09 00:33:00,SystemResetWarning,0829.8,5.00,000.00,029.9,029.5,000.0,038.1,031.8,035.6,0000.0,0016.07,0005.02,0003.60
2024-06-09 00:34:00,SystemResetWarning,0829.7,4.99,000.00,030.0,029.6,000.0,038.1,031.9,035.6,0000.0,0017.31,0005.17,0003.63
2024-06-09 00:35:00,SystemResetWarning,0829.7,5.00,000.00,030.0,029.6,000.0,038.2,031.9,035.5,0000.0,0018.06,0005.31,0003.66
2024-06-09 00:36:00,SystemResetWarning,0829.5,5.00,000.00,029.9,028.1,000.0,038.2,031.1,035.6,0000.0,0018.83,0005.47,0003.70
2024-06-09 00:37:00,SystemResetWarning,0829.3,5.00,000.00,029.5,026.5,000.0,038.2,030.4,036.5,0000.0,0019.89,0005.54,0003.75
2024-06-09 00:38:00,SystemResetWarning,0829.3,5.01,000.00,029.3,026.4,000.0,038.2,030.2,036.9,0000.0,0020.39,0005.66,0003.80
2024-06-09 00:39:00,SystemResetWarning,0829.3,5.01,000.00,029.2,026.8,000.0,038.0,030.4,037.2,0000.0,0020.36,0005.78,0003.84
2024-06-09 00:40:00,SystemResetWarning,0829.3,4.99,000.00,029.2,027.2,000.0,038.0,030.6,037.2,0000.0,0020.82,0005.90,0003.87
2024-06-09 00:41:00,SystemResetWarning,0829.2,5.00,000.00,029.3,027.6,000.0,037.9,030.8,037.1,0000.0,0021.42,0005.99,0003.90
2024-06-09 00:42:00,SystemResetWarning,0829.3,5.00,000.00,029.3,027.9,000.0,037.9,031.0,036.8,0000.0,0021.80,0006.04,0003.91
2024-06-09 00:43:00,SystemResetWarning,0829.3,5.00,000.00,029.4,028.2,000.0,037.9,031.1,036.8,0000.0,0023.34,0006.09,0003.94
2024-06-09 00:44:00,SystemResetWarning,0829.4,5.00,000.00,029.4,028.4,000.0,037.9,031.2,036.7,0000.0,0024.08,0006.13,0003.94
2024-06-09 00:45:00,SystemResetWarning,0829.4,5.00,000.00,029.5,028.6,000.0,037.9,031.3,036.6,0000.0,0023.96,0006.14,0003.94
2024-06-09 00:46:00,SystemResetWarning,0829.6,5.00,000.00,029.5,028.8,000.0,037.9,031.4,036.3,0000.0,0023.51,0006.08,0003.93
2024-06-09 00:47:00,SystemResetWarning,0829.7,5.00,000.00,029.6,028.9,000.0,037.9,031.5,035.8,0000.0,0023.74,0006.04,0003.92
2024-06-09 00:48:00,SystemResetWarning,0829.8,5.00,000.00,029.7,029.1,000.0,037.9,031.5,036.1,0000.0,0023.31,0006.05,0003.90
2024-06-09 00:49:00,SystemResetWarning,0829.8,5.00,000.00,029.7,029.2,000.0,037.9,031.6,036.2,0000.0,0022.70,0006.04,0003.88
2024-06-09 00:50:00,SystemResetWarning,0829.8,5.00,000.00,029.8,029.3,000.0,038.0,031.7,035.9,0000.0,0023.15,0006.08,0003.86
2024-06-09 00:51:00,SystemResetWarning,0829.8,5.00,000.00,029.8,029.4,000.0,038.0,031.7,036.2,0000.0,0022.79,0005.99,0003.84
2024-06-09 00:52:00,SystemResetWarning,0829.7,4.99,000.00,029.9,029.5,000.0,038.0,031.7,036.4,0000.0,0022.57,0005.96,0003.83
2024-06-09 00:53:00,SystemResetWarning,0829.7,5.00,000.00,030.0,029.5,000.0,038.1,031.8,036.6,0000.0,0023.73,0005.98,0003.83
2024-06-09 00:54:00,SystemResetWarning,0829.7,5.00,000.00,030.0,029.6,000.0,038.1,031.9,036.6,0000.0,0025.35,0005.97,0003.81
2024-06-09 00:55:00,SystemResetWarning,0829.7,5.01,000.00,030.0,029.5,000.0,038.2,031.8,037.0,0000.0,0025.31,0005.97,0003.80
2024-06-09 00:56:00,SystemResetWarning,0829.7,4.99,000.00,029.8,027.5,000.0,038.2,030.9,036.3,0000.0,0024.95,0006.01,0003.79
2024-06-09 00:57:00,SystemResetWarning,0829.7,5.01,000.00,029.5,026.4,000.0,038.2,030.3,036.1,0000.0,0025.87,0006.07,0003.80
2024-06-09 00:58:00,SystemResetWarning,0829.7,5.01,000.00,029.3,026.5,000.0,038.1,030.3,036.3,0000.0,0025.87,0006.07,0003.81
2024-06-09 00:59:00,SystemResetWarning,0829.7,4.99,000.00,029.2,026.9,000.0,038.0,030.5,036.7,0000.0,0024.67,0006.06,0003.80
